Zurück zum Katalog

STARLINK-3983

AktivKommunikationVLEO
NORAD 52618·PAYLOAD·🇺🇸 United States

Gestartet May 14, 2022 von Cape Canaveral Space Force Station

Loading…

Nächste Überflüge (nächste 24 Stunden)

TLE

AktuellSource: CelesTrak SupGP

Epoche: Sep 14, 2026, 13:12 UTC

1 52618C 22052W   26257.55048611  .00050173  00000+0  14356-2 0  2578
2 52618  53.1568 130.3913 0001270 100.0751 230.6841 15.35371264    18

Verfolge STARLINK-3983 in Echtzeit mit AllMySat

Download on the App Store